(計算時間: 0.087秒, 共找到 88968 筆資料,顯示第 301 到 400 筆)
可用欄位參考
GUID date humidity temperature pm25 geox geoy
54dc1e06-61ac-489f-a77f-0c3cd38a10d1 2015-07-27 18:00:00 48.166666666667 28.5 0.25083333333333 120.218 23.006
54dc1e06-61ac-489f-a77f-0c3cd38a10d1 2015-07-27 18:01:00 47.416666666667 28.916666666667 0.24416666666667 120.218 23.006
54dc1e06-61ac-489f-a77f-0c3cd38a10d1 2015-07-27 18:02:00 48.916666666667 28.833333333333 0 120.218 23.006
54dc1e06-61ac-489f-a77f-0c3cd38a10d1 2015-07-27 18:03:00 47.25 28.583333333333 1.1975 120.218 23.006
54dc1e06-61ac-489f-a77f-0c3cd38a10d1 2015-07-27 18:04:00 47.833333333333 28.833333333333 2.9933333333333 120.218 23.006
54dc1e06-61ac-489f-a77f-0c3cd38a10d1 2015-07-27 18:05:00 47.75 29 1.7816666666667 120.218 23.006
54dc1e06-61ac-489f-a77f-0c3cd38a10d1 2015-07-27 18:06:00 47.833333333333 28.833333333333 2.855 120.218 23.006
54dc1e06-61ac-489f-a77f-0c3cd38a10d1 2015-07-27 18:07:00 49.25 28.666666666667 2.0825 120.218 23.006
54dc1e06-61ac-489f-a77f-0c3cd38a10d1 2015-07-27 18:08:00 46.916666666667 28.583333333333 0 120.218 23.006
54dc1e06-61ac-489f-a77f-0c3cd38a10d1 2015-07-27 18:09:00 48.916666666667 28.916666666667 0.66 120.218 23.006
54dc1e06-61ac-489f-a77f-0c3cd38a10d1 2015-07-27 18:10:00 49 28.833333333333 0.7275 120.218 23.006
54dc1e06-61ac-489f-a77f-0c3cd38a10d1 2015-07-27 18:11:00 47.666666666667 29.083333333333 0.8825 120.218 23.006
54dc1e06-61ac-489f-a77f-0c3cd38a10d1 2015-07-27 18:12:00 48.75 28.833333333333 1.3716666666667 120.218 23.006
54dc1e06-61ac-489f-a77f-0c3cd38a10d1 2015-07-27 18:13:00 47.833333333333 28.666666666667 0.079166666666667 120.218 23.006
54dc1e06-61ac-489f-a77f-0c3cd38a10d1 2015-07-27 18:14:00 47.416666666667 29.333333333333 0.35333333333333 120.218 23.006
54dc1e06-61ac-489f-a77f-0c3cd38a10d1 2015-07-27 18:15:00 47.833333333333 28.416666666667 0.71083333333333 120.218 23.006
54dc1e06-61ac-489f-a77f-0c3cd38a10d1 2015-07-27 18:16:00 46.333333333333 28.5 0.94333333333333 120.218 23.006
54dc1e06-61ac-489f-a77f-0c3cd38a10d1 2015-07-27 18:17:00 47.916666666667 28.25 0.60666666666667 120.218 23.006
54dc1e06-61ac-489f-a77f-0c3cd38a10d1 2015-07-27 18:18:00 49.416666666667 28.5 0 120.218 23.006
54dc1e06-61ac-489f-a77f-0c3cd38a10d1 2015-07-27 18:19:00 48.166666666667 29 1.3575 120.218 23.006
54dc1e06-61ac-489f-a77f-0c3cd38a10d1 2015-07-27 18:20:00 47.583333333333 28.666666666667 0.705 120.218 23.006
54dc1e06-61ac-489f-a77f-0c3cd38a10d1 2015-07-27 18:21:00 49.5 28 0.75583333333333 120.218 23.006
54dc1e06-61ac-489f-a77f-0c3cd38a10d1 2015-07-27 18:22:00 48 28.25 1.0966666666667 120.218 23.006
54dc1e06-61ac-489f-a77f-0c3cd38a10d1 2015-07-27 18:23:00 48.416666666667 28.5 1.6 120.218 23.006
54dc1e06-61ac-489f-a77f-0c3cd38a10d1 2015-07-27 18:24:00 46.75 28.166666666667 0.2375 120.218 23.006
54dc1e06-61ac-489f-a77f-0c3cd38a10d1 2015-07-27 18:25:00 47.545454545455 28.272727272727 0 120.218 23.006
54dc1e06-61ac-489f-a77f-0c3cd38a10d1 2015-07-27 18:26:00 49.333333333333 28 0.92166666666667 120.218 23.006
54dc1e06-61ac-489f-a77f-0c3cd38a10d1 2015-07-27 18:27:00 46.833333333333 28.166666666667 0 120.218 23.006
54dc1e06-61ac-489f-a77f-0c3cd38a10d1 2015-07-27 18:28:00 48.5 28.833333333333 0 120.218 23.006
54dc1e06-61ac-489f-a77f-0c3cd38a10d1 2015-07-27 18:29:00 48.166666666667 28.833333333333 0.26083333333333 120.218 23.006
54dc1e06-61ac-489f-a77f-0c3cd38a10d1 2015-07-27 18:30:00 46.75 28 0 120.218 23.006
54dc1e06-61ac-489f-a77f-0c3cd38a10d1 2015-07-27 18:31:00 46.833333333333 28.666666666667 1.3183333333333 120.218 23.006
54dc1e06-61ac-489f-a77f-0c3cd38a10d1 2015-07-27 18:32:00 47.166666666667 27.916666666667 1.0316666666667 120.218 23.006
54dc1e06-61ac-489f-a77f-0c3cd38a10d1 2015-07-27 18:33:00 48.75 28.916666666667 0 120.218 23.006
54dc1e06-61ac-489f-a77f-0c3cd38a10d1 2015-07-27 18:34:00 46.166666666667 28.166666666667 0.6025 120.218 23.006
54dc1e06-61ac-489f-a77f-0c3cd38a10d1 2015-07-27 18:35:00 48.333333333333 29.25 0 120.218 23.006
54dc1e06-61ac-489f-a77f-0c3cd38a10d1 2015-07-27 18:36:00 46.75 28 0.71333333333333 120.218 23.006
54dc1e06-61ac-489f-a77f-0c3cd38a10d1 2015-07-27 18:37:00 46.833333333333 28.5 0.66 120.218 23.006
54dc1e06-61ac-489f-a77f-0c3cd38a10d1 2015-07-27 18:38:00 46.75 28.25 3.32 120.218 23.006
54dc1e06-61ac-489f-a77f-0c3cd38a10d1 2015-07-27 18:39:00 48.166666666667 28.833333333333 0.21833333333333 120.218 23.006
54dc1e06-61ac-489f-a77f-0c3cd38a10d1 2015-07-27 18:40:00 47.166666666667 28.166666666667 0.225 120.218 23.006
54dc1e06-61ac-489f-a77f-0c3cd38a10d1 2015-07-27 18:41:00 47.083333333333 28.333333333333 0 120.218 23.006
54dc1e06-61ac-489f-a77f-0c3cd38a10d1 2015-07-27 18:42:00 46.833333333333 28.416666666667 1.3516666666667 120.218 23.006
54dc1e06-61ac-489f-a77f-0c3cd38a10d1 2015-07-27 18:43:00 45.666666666667 28.333333333333 0.75166666666667 120.218 23.006
54dc1e06-61ac-489f-a77f-0c3cd38a10d1 2015-07-27 18:44:00 46.833333333333 28.5 0.0225 120.218 23.006
54dc1e06-61ac-489f-a77f-0c3cd38a10d1 2015-07-27 18:45:00 46.583333333333 28.583333333333 0 120.218 23.006
54dc1e06-61ac-489f-a77f-0c3cd38a10d1 2015-07-27 18:46:00 46.416666666667 28.5 1.2358333333333 120.218 23.006
54dc1e06-61ac-489f-a77f-0c3cd38a10d1 2015-07-27 18:47:00 45.583333333333 28.416666666667 0 120.218 23.006
54dc1e06-61ac-489f-a77f-0c3cd38a10d1 2015-07-27 18:48:00 46.416666666667 28.75 0 120.218 23.006
54dc1e06-61ac-489f-a77f-0c3cd38a10d1 2015-07-27 18:49:00 45.916666666667 28.416666666667 2.1533333333333 120.218 23.006
54dc1e06-61ac-489f-a77f-0c3cd38a10d1 2015-07-27 18:50:00 47 29.166666666667 0 120.218 23.006
54dc1e06-61ac-489f-a77f-0c3cd38a10d1 2015-07-27 18:51:00 45.75 29.416666666667 0 120.218 23.006
54dc1e06-61ac-489f-a77f-0c3cd38a10d1 2015-07-27 18:52:00 46.166666666667 28.416666666667 0.66083333333333 120.218 23.006
54dc1e06-61ac-489f-a77f-0c3cd38a10d1 2015-07-27 18:53:00 46.416666666667 28.166666666667 0 120.218 23.006
54dc1e06-61ac-489f-a77f-0c3cd38a10d1 2015-07-27 18:54:00 48.25 29.166666666667 0.45333333333333 120.218 23.006
54dc1e06-61ac-489f-a77f-0c3cd38a10d1 2015-07-27 18:55:00 47.666666666667 28.083333333333 0.305 120.218 23.006
54dc1e06-61ac-489f-a77f-0c3cd38a10d1 2015-07-27 18:56:00 47.583333333333 28.583333333333 0 120.218 23.006
54dc1e06-61ac-489f-a77f-0c3cd38a10d1 2015-07-27 18:57:00 46 28.333333333333 0 120.218 23.006
54dc1e06-61ac-489f-a77f-0c3cd38a10d1 2015-07-27 18:58:00 45.083333333333 28.166666666667 0.51666666666667 120.218 23.006
54dc1e06-61ac-489f-a77f-0c3cd38a10d1 2015-07-27 18:59:00 45.916666666667 28.583333333333 0.14333333333333 120.218 23.006
54dc1e06-61ac-489f-a77f-0c3cd38a10d1 2015-07-27 19:00:00 46.333333333333 28.833333333333 1.7158333333333 120.218 23.006
54dc1e06-61ac-489f-a77f-0c3cd38a10d1 2015-07-27 19:01:00 48 28.916666666667 1.1066666666667 120.218 23.006
54dc1e06-61ac-489f-a77f-0c3cd38a10d1 2015-07-27 19:02:00 46.416666666667 28.083333333333 0.36833333333333 120.218 23.006
54dc1e06-61ac-489f-a77f-0c3cd38a10d1 2015-07-27 19:03:00 46.916666666667 28.916666666667 0.58416666666667 120.218 23.006
54dc1e06-61ac-489f-a77f-0c3cd38a10d1 2015-07-27 19:04:00 45.5 28.333333333333 0.5875 120.218 23.006
54dc1e06-61ac-489f-a77f-0c3cd38a10d1 2015-07-27 19:05:00 47.416666666667 28.333333333333 0 120.218 23.006
54dc1e06-61ac-489f-a77f-0c3cd38a10d1 2015-07-27 19:06:00 47.166666666667 27.833333333333 0.80083333333333 120.218 23.006
54dc1e06-61ac-489f-a77f-0c3cd38a10d1 2015-07-27 19:07:00 45.25 28.083333333333 0.018333333333333 120.218 23.006
54dc1e06-61ac-489f-a77f-0c3cd38a10d1 2015-07-27 19:08:00 48.75 29.083333333333 0 120.218 23.006
54dc1e06-61ac-489f-a77f-0c3cd38a10d1 2015-07-27 19:09:00 46.416666666667 27.916666666667 0.28833333333333 120.218 23.006
54dc1e06-61ac-489f-a77f-0c3cd38a10d1 2015-07-27 19:10:00 46.833333333333 28.5 0 120.218 23.006
54dc1e06-61ac-489f-a77f-0c3cd38a10d1 2015-07-27 19:11:00 45.166666666667 28.083333333333 0.18416666666667 120.218 23.006
54dc1e06-61ac-489f-a77f-0c3cd38a10d1 2015-07-27 19:12:00 46.166666666667 28.416666666667 0.12666666666667 120.218 23.006
54dc1e06-61ac-489f-a77f-0c3cd38a10d1 2015-07-27 19:13:00 46.416666666667 28.083333333333 0.51 120.218 23.006
54dc1e06-61ac-489f-a77f-0c3cd38a10d1 2015-07-27 19:14:00 46.916666666667 28.583333333333 0 120.218 23.006
54dc1e06-61ac-489f-a77f-0c3cd38a10d1 2015-07-27 19:15:00 46.416666666667 28.083333333333 0.29416666666667 120.218 23.006
54dc1e06-61ac-489f-a77f-0c3cd38a10d1 2015-07-27 19:16:00 46.166666666667 28.416666666667 0.95666666666667 120.218 23.006
54dc1e06-61ac-489f-a77f-0c3cd38a10d1 2015-07-27 19:17:00 45.666666666667 28 2.5225 120.218 23.006
54dc1e06-61ac-489f-a77f-0c3cd38a10d1 2015-07-27 19:18:00 46.25 28.583333333333 0 120.218 23.006
54dc1e06-61ac-489f-a77f-0c3cd38a10d1 2015-07-27 19:19:00 45.5 28.666666666667 2.4558333333333 120.218 23.006
54dc1e06-61ac-489f-a77f-0c3cd38a10d1 2015-07-27 19:20:00 46.416666666667 28.583333333333 1.1133333333333 120.218 23.006
54dc1e06-61ac-489f-a77f-0c3cd38a10d1 2015-07-27 19:21:00 47.25 28.333333333333 1.6633333333333 120.218 23.006
54dc1e06-61ac-489f-a77f-0c3cd38a10d1 2015-07-27 19:22:00 46 28.583333333333 0.30666666666667 120.218 23.006
54dc1e06-61ac-489f-a77f-0c3cd38a10d1 2015-07-27 19:23:00 46.416666666667 28.583333333333 0 120.218 23.006
54dc1e06-61ac-489f-a77f-0c3cd38a10d1 2015-07-27 19:24:00 47.333333333333 28.666666666667 0 120.218 23.006
54dc1e06-61ac-489f-a77f-0c3cd38a10d1 2015-07-27 19:25:00 45.25 28 0 120.218 23.006
54dc1e06-61ac-489f-a77f-0c3cd38a10d1 2015-07-27 19:26:00 47.083333333333 28.333333333333 0.1925 120.218 23.006
54dc1e06-61ac-489f-a77f-0c3cd38a10d1 2015-07-27 19:27:00 47.166666666667 28 0 120.218 23.006
54dc1e06-61ac-489f-a77f-0c3cd38a10d1 2015-07-27 19:28:00 47 28.25 1.4225 120.218 23.006
54dc1e06-61ac-489f-a77f-0c3cd38a10d1 2015-07-27 19:29:00 47.833333333333 28.25 2.1333333333333 120.218 23.006
54dc1e06-61ac-489f-a77f-0c3cd38a10d1 2015-07-27 19:30:00 46.416666666667 28.25 1.2491666666667 120.218 23.006
54dc1e06-61ac-489f-a77f-0c3cd38a10d1 2015-07-27 19:31:00 45.833333333333 28.333333333333 1.9708333333333 120.218 23.006
54dc1e06-61ac-489f-a77f-0c3cd38a10d1 2015-07-27 19:32:00 45.666666666667 27.916666666667 1.2133333333333 120.218 23.006
54dc1e06-61ac-489f-a77f-0c3cd38a10d1 2015-07-27 19:33:00 46.916666666667 28.25 0.7975 120.218 23.006
54dc1e06-61ac-489f-a77f-0c3cd38a10d1 2015-07-27 19:34:00 45.666666666667 28 0.27 120.218 23.006
54dc1e06-61ac-489f-a77f-0c3cd38a10d1 2015-07-27 19:35:00 46.333333333333 28.916666666667 1.5833333333333 120.218 23.006
54dc1e06-61ac-489f-a77f-0c3cd38a10d1 2015-07-27 19:36:00 46.666666666667 28 0.045833333333333 120.218 23.006
54dc1e06-61ac-489f-a77f-0c3cd38a10d1 2015-07-27 19:37:00 47.5 28.833333333333 0.50916666666667 120.218 23.006
54dc1e06-61ac-489f-a77f-0c3cd38a10d1 2015-07-27 19:38:00 45.166666666667 28.666666666667 2.7733333333333 120.218 23.006
54dc1e06-61ac-489f-a77f-0c3cd38a10d1 2015-07-27 19:39:00 46.416666666667 28.666666666667 0 120.218 23.006